Zurück zum Katalog

COSMOS 82

AktivMilitärLEO
NORAD 1572·PAYLOAD·🇷🇺 Russia

Gestartet Sep 3, 1965 von Baikonur Cosmodrome

Loading…

Nächste Überflüge (nächste 24 Stunden)

TLE

AktuellSource: Space-Track

Epoche: Sep 14, 2026, 07:43 UTC

1 01572U 65070C   26257.32221722 -.00000102  00000-0 -55818-4 0  9992
2 01572  56.0619  19.2406 0074940  20.4163   4.0709 12.45124270775306

Verfolge COSMOS 82 in Echtzeit mit AllMySat

Download on the App Store